This is the latest recevied weather packets stored in our database for station/object KG5TTF. If no packets are shown the sender has not sent any weather packets the latest 10 day(s).
| Time | Temp. | Humidity | Pressure | Rain* | Wind** | Luminosity | Snow |
|---|---|---|---|---|---|---|---|
| 1777082874 | 12.78° C | 10% | 1010.2 hPa | 0 mm | - | 0 W/m² | - |
| 1777082570 | 13.33° C | 10% | 1010.1 hPa | 0 mm | - | 0 W/m² | - |
| 1777082265 | 13.89° C | 9% | 1010.3 hPa | 0 mm | - | 0 W/m² | - |
| 1777081960 | 14.44° C | 8% | 1009.9 hPa | 0 mm | - | 1 W/m² | - |
| 1777081655 | 15° C | 8% | 1009.9 hPa | 0 mm | - | 1 W/m² | - |
| 1777081351 | 15° C | 7% | 1009.7 hPa | 0 mm | - | 2 W/m² | - |
| 1777081048 | 15.56° C | 7% | 1009.7 hPa | 0 mm | - | 3 W/m² | - |
| 1777080746 | 15.56° C | 6% | 1009.7 hPa | 0 mm | - | 6 W/m² | - |
| 1777080442 | 15.56° C | 7% | 1009.6 hPa | 0 mm | - | 8 W/m² | - |
| 1777080136 | 15.56° C | 7% | 1009.4 hPa | 0 mm | - | 11 W/m² | - |
| 1777079835 | 15.56° C | 7% | 1009.4 hPa | 0 mm | - | 15 W/m² | - |
| 1777079530 | 16.11° C | 7% | 1009.4 hPa | 0 mm | - | 19 W/m² | - |
| 1777079227 | 16.67° C | 7% | 1009.4 hPa | 0 mm | - | 26 W/m² | - |
| 1777078923 | 16.67° C | 7% | 1009.2 hPa | 0 mm | - | 29 W/m² | - |
| 1777078619 | 17.22° C | 6% | 1009.3 hPa | 0 mm | - | 38 W/m² | - |
| 1777078311 | 17.22° C | 6% | 1009.3 hPa | 0 mm | - | 42 W/m² | - |
| 1777078010 | 17.78° C | 6% | 1009.2 hPa | 0 mm | - | 56 W/m² | - |
| 1777077706 | 17.78° C | 6% | 1009.2 hPa | 0 mm | - | 65 W/m² | - |
| 1777077403 | 17.78° C | 5% | 1009.2 hPa | 0 mm | - | 66 W/m² | - |
| 1777077102 | 17.78° C | 5% | 1009.3 hPa | 0 mm | - | 77 W/m² | - |
| 1777076797 | 17.78° C | 5% | 1009.1 hPa | 0 mm | - | 81 W/m² | - |
| 1777076494 | 18.33° C | 6% | 1009.1 hPa | 0 mm | - | 89 W/m² | - |
| 1777076188 | 18.33° C | 6% | 1009.3 hPa | 0 mm | - | 100 W/m² | - |
| 1777075885 | 18.89° C | 5% | 1008.8 hPa | 0 mm | - | 111 W/m² | - |
| 1777075580 | 18.89° C | 6% | 1008.8 hPa | 0 mm | - | 154 W/m² | - |
* Rain latest hour (hover to see other rain measurements)
** Current wind speed in m/s (hover to see current wind gust speed)